Location: Denia
(38.8500°N, 0.1170°E)
Time: 23:08:21
(UTC+01:00)

Envisat - Pass Details

Date: 23 January 2020
Orbit: 764 x 766 km, 98.1° (Epoch: 19 February)

Event Time Altitude Azimuth Distance (km) Brightness Sun altitude
Rises 06:47:40 0° 26° (NNE) 3,238 6.4 -16.6°
Reaches altitude 10° 06:50:21 10° 38° (NE) 2,307 5.8 -16.1°
Maximum altitude 06:54:35 26° 95° (E) 1,471 5.4 -15.3°
Drops below altitude 10° 06:58:46 10° 151° (SSE) 2,293 6.1 -14.5°
Sets 07:01:25 0° 164° (SSE) 3,214 6.7 -14.0°
